Flag for U.S.A. Weather past 2 weeks in Hollywood, California, U.S.A.

Now
87 °F

Sunny.


Feels Like: 85 °F
Forecast: 64 / 86 °F
Wind: 7 mph from South

Location: Van Nuys Airport

Current Time: Jul 25, 2014 at 6:55:25 PM

Latest Report: Jul 25, 2014 at 5:51 PM


Visibility: 10 mi

Pressure: 29.83 "Hg

Humidity: 32%

Dew point: 54 °F

Location of HollywoodLocation

Historic Weather in Hollywood — Graph

°F

Hollywood temperature yesterday

Maximum temperature yesterday: 102 °F (at 3:51 PM)
Minimum temperature yesterday: 68 °F (at 5:51 AM)
Average temperature yesterday: 85 °F

Past Weeks' High & Low Weather Summary

 TemperatureHumidityPressure
High102 °F (Jul 24, 3:51 PM)84% (Jul 11, 3:51 AM)30.05 "Hg (Jul 11, 3:51 AM)
Low62 °F (Jul 18, 4:51 AM)7% (Jul 24, 12:51 PM)29.70 "Hg (Jul 24, 5:51 PM)
Average75 °F57%29.93 "Hg
* Reported Jul 10 5:51 PM — Jul 25 5:51 PM, Hollywood, Weather by CustomWeather, © 2014

Note: Actual official high and low records may vary slightly from our data, if they occured in-between our weather recording intervals... More about our weather records

Advertising

Hollywood weather history for previous 24 hours

 ConditionsComfort  
Time TempWeatherWind HumidityBarometerVisibility
5:51 PM
Jul 25
87 °FSunny.7 mph32%29.83 "Hg10 mi
4:51 PM89 °FSunny.6 mph32%29.84 "Hg10 mi
3:51 PM87 °FSunny.9 mph40%29.86 "Hg10 mi
2:51 PM87 °FSunny.14 mph42%29.87 "Hg10 mi
1:51 PM88 °FSunny.10 mph40%29.87 "Hg10 mi
12:51 PM90 °FSunny.9 mph38%29.86 "Hg10 mi
11:51 AM88 °FSunny.6 mph39%29.86 "Hg10 mi
10:51 AM84 °FSunny.6 mph46%29.87 "Hg10 mi
9:51 AM78 °FSunny.No wind56%29.88 "Hg10 mi
8:51 AM74 °FSunny.No wind64%29.87 "Hg10 mi
7:51 AM72 °FSunny.3 mph68%29.86 "Hg10 mi
6:51 AM69 °FClear.No wind73%29.85 "Hg10 mi
5:51 AM69 °FClear.No wind70%29.85 "Hg10 mi
4:51 AM69 °FClear.5 mph68%29.84 "Hg10 mi
3:51 AM70 °FClear.No wind64%29.84 "Hg10 mi
2:51 AM71 °FClear.3 mph61%29.83 "Hg10 mi
1:51 AM74 °FClear.7 mph57%29.81 "Hg10 mi
12:51 AM77 °FClear.5 mph52%29.80 "Hg10 mi
11:51 PM
Jul 24
79 °FClear.3 mph47%29.79 "Hg10 mi
10:51 PM81 °FClear.5 mph44%29.78 "Hg10 mi
9:51 PM85 °FClear.3 mph35%29.76 "Hg10 mi
8:51 PM90 °FSunny.No wind26%29.74 "Hg10 mi
7:51 PM93 °FSunny.5 mph20%29.72 "Hg10 mi
6:51 PM97 °FSunny.6 mph18%29.70 "Hg10 mi
Weather by CustomWeather, © 2014

See weather overviewHow to use our weather pages